Oakey, Australia

9:00 PM AEST on January 18, 2018 (GMT +1000)
Oakey (Military)

Weather History for YBOK - December, 2013

Change the Weather History Date:

Friday, December 27, 2013

  Actual Average Record
Temperature  
Mean Temperature 79 °F -  
Max Temperature 93 °F - - ()
Min Temperature 65 °F - - ()
Cooling Degree Days 14    
Growing Degree Days 29 (Base 50)    
Moisture  
Dew Point 62 °F    
Average Humidity 57    
Maximum Humidity 78    
Minimum Humidity 21    
Precipitation  
Precipitation 0.00 in - - ()
Sea Level Pressure  
Sea Level Pressure 29.80 in    
Wind  
Wind Speed 9 mph ()    
Max Wind Speed 29 mph    
Max Gust Speed -    
Visibility 6.2 miles    
Events      
T = Trace of Precipitation, MM = Missing Value Source: Averaged Metar Reports

Daily Weather History Graph

Daily Weather History Graph

Search for Another Location

Airport or City:

Trip Planner

Search our weather history database for the weather conditions in past years. The results will help you decide how hot, cold, wet, or windy it might be!

Date:

Astronomy

Dec. 27, 2013 Rise Set
Actual Time 4:57 AM AEST 6:50 PM AEST
Civil Twilight 4:31 AM AEST 7:16 PM AEST
Nautical Twilight 3:59 AM AEST 7:48 PM AEST
Astronomical Twilight 3:25 AM AEST 8:22 PM AEST
Moon 12:15 AM AEST (12/27) 1:19 PM AEST (12/27)
Length of Visible Light 14h 45m
Length of Day
13h 52m
Waning Crescent, 35% of the Moon is Illuminated
Dec 27
Waning Crescent
Jan 1
New
Jan 8
First Quarter
Jan 16
Full
Jan 24
Last Quarter

Hourly Weather History & Observations

Time (AEST) Temp. Heat Index Dew Point Humidity Pressure Visibility Wind Dir Wind Speed Gust Speed Precip Events Conditions
12:00 AM 74 °F - 61 °F 55% 29.78 in - NNE 5.8 mph - -  
12:00 AM 73.4 °F - 60.8 °F 65% 29.83 in 6.2 mi NNE 5.8 mph - N/A   Unknown
1:00 AM 74 °F - 62 °F 56% 29.75 in - NE 5.8 mph - -  
1:00 AM 73.4 °F - 60.8 °F 65% 29.80 in 6.2 mi NE 5.8 mph - N/A   Unknown
2:00 AM 69.8 °F - 60.8 °F 73% 29.80 in 6.2 mi East 6.9 mph - N/A   Unknown
3:00 AM 69 °F - 61 °F 68% 29.74 in - ENE 6.9 mph - -  
3:00 AM 69.8 °F - 60.8 °F 73% 29.80 in 6.2 mi ENE 6.9 mph - N/A   Unknown
4:00 AM 68 °F - 61 °F 71% 29.76 in - ESE 4.6 mph - -  
4:00 AM 68.0 °F - 60.8 °F 78% 29.80 in 6.2 mi ESE 4.6 mph - N/A   Unknown
5:00 AM 68.0 °F - 60.8 °F 78% 29.83 in 6.2 mi SSE 11.5 mph - N/A   Unknown
6:00 AM 72 °F - 63 °F 66% 29.81 in - ESE 3.5 mph - -  
6:00 AM 71.6 °F - 62.6 °F 73% 29.86 in 6.2 mi ESE 3.5 mph - N/A   Unknown
7:00 AM 76 °F - 64 °F 57% 29.82 in - NE 6.9 mph - -  
7:00 AM 77.0 °F - 64.4 °F 65% 29.86 in 6.2 mi NE 6.9 mph - N/A   Unknown
8:00 AM 80.6 °F 81.8 °F 62.6 °F 54% 29.89 in 6.2 mi NNW 8.1 mph - N/A   Unknown
9:00 AM 82 °F - 62 °F 41% 29.82 in - NW 8.1 mph - -  
9:00 AM 82.4 °F 83.4 °F 62.6 °F 51% 29.86 in 6.2 mi NW 8.1 mph - N/A   Unknown
10:00 AM 85 °F - 62 °F 35% 29.80 in - North 6.9 mph - -  
10:00 AM 86.0 °F 86.1 °F 60.8 °F 43% 29.86 in 6.2 mi North 6.9 mph - N/A   Unknown
11:00 AM 87.8 °F 87.1 °F 59.0 °F 38% 29.83 in 6.2 mi WNW 6.9 mph - N/A   Scattered Clouds
12:00 PM 90 °F - 57 °F 23% 29.74 in - North 3.5 mph - -  
12:00 PM 89.6 °F 88.1 °F 57.2 °F 33% 29.80 in 6.2 mi North 3.5 mph - N/A   Mostly Cloudy
1:00 PM 92 °F - 56 °F 21% 29.70 in - WNW 10.4 mph - -  
1:00 PM 93.2 °F 91.9 °F 57.2 °F 30% 29.74 in 6.2 mi WNW 10.4 mph - N/A   Mostly Cloudy
2:00 PM 87.8 °F 87.6 °F 60.8 °F 40% 29.71 in 6.2 mi NE 17.3 mph - N/A   Scattered Clouds
3:00 PM 86 °F - 64 °F 37% 29.67 in - East 28.8 mph - -  
3:00 PM 86.0 °F 87.3 °F 64.4 °F 48% 29.71 in 6.2 mi East 28.8 mph - N/A   Scattered Clouds
4:00 PM 82 °F - 64 °F 44% 29.69 in - East 27.6 mph - -  
4:00 PM 82.4 °F 83.9 °F 64.4 °F 54% 29.74 in 6.2 mi East 27.6 mph - N/A   Scattered Clouds
5:00 PM 80.6 °F 82.3 °F 64.4 °F 58% 29.74 in 6.2 mi ENE 26.5 mph - N/A   Unknown
6:00 PM 78 °F - 65 °F 55% 29.74 in - ENE 19.6 mph - -  
6:00 PM 78.8 °F - 64.4 °F 61% 29.80 in 6.2 mi ENE 19.6 mph - N/A   Unknown
7:00 PM 74 °F - 65 °F 66% 29.78 in - NE 18.4 mph - -  
7:00 PM 75.2 °F - 64.4 °F 69% 29.83 in 6.2 mi NE 18.4 mph - N/A   Unknown
8:00 PM 73.4 °F - 64.4 °F 73% 29.86 in 6.2 mi NE 17.3 mph - N/A   Unknown
9:00 PM 72 °F - 64 °F 69% 29.83 in - ENE 15.0 mph - -  
9:00 PM 71.6 °F - 64.4 °F 78% 29.89 in 6.2 mi ENE 15.0 mph - N/A   Unknown
10:00 PM 71 °F - 64 °F 72% 29.84 in - ENE 15.0 mph - -  
10:00 PM 71.6 °F - 64.4 °F 78% 29.89 in 6.2 mi ENE 15.0 mph - N/A   Unknown
11:00 PM 71.6 °F - 64.4 °F 78% 29.89 in 6.2 mi ENE 16.1 mph - N/A   Unknown